PRISMA

operational
NORAD ID: 44072 Int'l Des: 2019-015 Owner: ASI Country: I
LEOCIRCULARRETROGRADESSO

PRISMAについて

説明を読み込み中...

リアルタイム位置

3D地球を読み込み中...

次回通過

高度履歴

Altitude vs Time

uPlot chart will show altitude changes over time

軌道要素

1 44072U 19015A 26061.65025612 .00001645 00000-0 20548-3 0 9993
2 44072 97.8736 137.9749 0001269 96.6592 263.4767 14.83697448376256
Epoch: Mar 2, 2026 • Age: 30 hours

現在のステータス

高度 625.5 km
速度 7.55 km/s
衛星直下点 52.37°N, 128.91°W
打ち上げ日 Mar 22, 2019
運用期間 6.9 years
タイプ other

技術仕様

分類 Payload
質量 879.00 kg
乾燥質量 850.00 kg
総質量 879.00 kg
長さ 3.40 m
直径 1.50 m
スパン 5.00 m
形状 Box+panel
製造者 OHBI
バスタイプ MITA
フェーズステータス In Orbit
所有者/国 ASI/I

大規模コンステレーション

Loading constellations...